Location: Caltech
(34.1382°N, 118.1253°W)
Time: 15:05:13
(UTC-07:00)

Cosmos 2360 Rocket - Visible Passes

Search period start: 25 April 2018 00:00
Search period end: 05 May 2018 00:00
Orbit: 835 x 844 km, 71.0° (Epoch: 24 April)

Date Brightness Start Highest point End Pass type
(mag) Time Alt. Az. Time Alt. Az. Time Alt. Az.
25 Apr 3.1 04:11:24 10° N 04:16:52 50° ENE 04:22:18 10° SE visible
26 Apr 3.2 03:55:45 10° N 04:01:10 46° ENE 04:06:33 10° SE visible
26 Apr 3.4 05:40:50 10° NW 05:44:43 19° W 05:48:36 10° SW visible
27 Apr 3.3 03:40:06 10° N 03:45:27 43° ENE 03:50:47 10° SE visible
27 Apr 3.3 05:24:58 10° NW 05:29:03 21° W 05:33:08 10° SSW visible
28 Apr 3.4 03:24:28 10° N 03:29:45 40° ENE 03:35:00 10° SE visible
28 Apr 3.3 05:09:09 10° NW 05:13:24 23° W 05:17:40 10° SSW visible
29 Apr 3.5 03:08:50 10° N 03:14:02 38° ENE 03:19:13 10° SE visible
29 Apr 3.2 04:53:19 10° NW 04:57:45 24° WSW 05:01:24 13° SSW visible
30 Apr 3.6 02:53:12 10° N 02:58:20 35° ENE 03:01:19 21° ESE visible
30 Apr 3.1 04:37:30 10° NW 04:42:05 26° WSW 04:42:55 25° WSW visible
01 May 3.6 02:37:34 10° N 02:42:37 33° ENE 02:44:06 29° E visible
01 May 3.1 04:21:43 10° NW 04:25:45 27° W 04:25:45 27° W visible
02 May 3.7 02:21:56 10° N 02:26:54 31° ENE 02:27:27 30° ENE visible
02 May 3.3 04:05:56 10° NW 04:09:07 26° WNW 04:09:07 26° WNW visible
03 May 3.8 02:06:20 10° N 02:11:05 29° ENE 02:11:05 29° ENE visible
03 May 3.5 03:50:09 10° NW 03:52:47 24° WNW 03:52:47 24° WNW visible
04 May 4.0 01:50:43 10° N 01:54:55 27° NE 01:54:55 27° NE visible
04 May 3.7 03:34:22 10° NW 03:36:38 22° NW 03:36:38 22° NW visible
